{"data":{"norad_id":40894,"epoch":"2026-09-20T04:49:27.456672Z","epoch_age_seconds":40224,"freshness":"FRESH","line1":"1 40894U 15047A   26263.20101223  .00000494  00000+0  66684-4 0  9992","line2":"2 40894  97.6217 294.5556 0027091 185.0417 175.0529 14.83025692594276","mean_motion":14.83025692,"eccentricity":0.0027091,"inclination_deg":97.6217,"raan_deg":294.5556,"arg_perigee_deg":185.0417,"mean_anomaly_deg":175.0529,"bstar":6.6684e-5,"rev_number":59427,"period_min":97.098789843487,"perigee_km":600.83165368637,"apogee_km":638.74782033283,"semimajor_km":6997.9267370096,"source":"CELESTRAK","updated_at":"2026-09-20T09:00:33.965003Z"}}